Radiation Dose at Monitoring Post of Fukushima Daini Nuclear Power Station
Date,Time,MP-1(microSv/h),MP-2(microSv/h),MP-3(microSv/h),MP-4(microSv/h),MP-5(microSv/h),MP-6(microSv/h),MP-7(microSv/h),Wind Direction,Wind Velocity(m/s),Rain
2022/12/05,00:00,0.153,0.138,0.214,0.212,0.212,0.121,0.077,north,5.1,No
2022/12/05,00:10,0.153,0.138,0.215,0.211,0.212,0.122,0.077,north,5.8,No
2022/12/05,00:20,0.153,0.138,0.215,0.212,0.213,0.122,0.078,north,5.3,No
2022/12/05,00:30,0.153,0.138,0.215,0.212,0.212,0.122,0.077,north,5.8,No
2022/12/05,00:40,0.154,0.138,0.215,0.211,0.212,0.122,0.077,north,5.1,No
2022/12/05,00:50,0.153,0.138,0.215,0.212,0.212,0.121,0.077,north,4.4,No
2022/12/05,01:00,0.153,0.137,0.214,0.212,0.213,0.122,0.077,north,5.1,No
2022/12/05,01:10,0.154,0.138,0.216,0.212,0.212,0.121,0.077,north-northwest,6.2,No
2022/12/05,01:20,0.154,0.138,0.216,0.211,0.212,0.122,0.079,north,6.2,No
2022/12/05,01:30,0.153,0.137,0.216,0.211,0.212,0.121,0.078,north,5.7,No
2022/12/05,01:40,0.152,0.137,0.215,0.211,0.212,0.120,0.077,north,7.0,No
2022/12/05,01:50,0.153,0.138,0.215,0.211,0.211,0.121,0.078,north,6.5,No
2022/12/05,02:00,0.154,0.137,0.215,0.212,0.212,0.122,0.076,north-northwest,6.1,No
2022/12/05,02:10,0.153,0.137,0.215,0.211,0.213,0.122,0.077,north,7.0,No
2022/12/05,02:20,0.153,0.138,0.214,0.210,0.213,0.121,0.077,north,5.2,No
2022/12/05,02:30,0.153,0.137,0.216,0.212,0.213,0.121,0.078,north-northwest,5.5,No
2022/12/05,02:40,0.153,0.138,0.216,0.211,0.213,0.121,0.077,north,5.1,No
2022/12/05,02:50,0.153,0.136,0.215,0.211,0.212,0.121,0.077,north-northwest,4.2,No
2022/12/05,03:00,0.153,0.137,0.214,0.212,0.213,0.122,0.077,north-northwest,4.1,No
2022/12/05,03:10,0.155,0.137,0.217,0.212,0.213,0.121,0.077,north,5.1,No
2022/12/05,03:20,0.153,0.137,0.215,0.211,0.213,0.121,0.078,north-northwest,6.4,No
2022/12/05,03:30,0.153,0.137,0.215,0.212,0.213,0.121,0.077,north-northwest,6.0,No
2022/12/05,03:40,0.153,0.138,0.215,0.211,0.212,0.121,0.077,north-northwest,5.6,No
2022/12/05,03:50,0.152,0.137,0.215,0.212,0.212,0.121,0.077,north-northwest,5.5,No
2022/12/05,04:00,0.153,0.136,0.216,0.212,0.212,0.120,0.078,northwest,5.6,No
2022/12/05,04:10,0.152,0.137,0.216,0.213,0.212,0.121,0.077,north-northwest,5.2,No
2022/12/05,04:20,0.153,0.137,0.215,0.211,0.212,0.121,0.078,north-northwest,5.2,No
2022/12/05,04:30,0.153,0.137,0.214,0.211,0.213,0.121,0.077,north-northwest,5.7,No
2022/12/05,04:40,0.153,0.137,0.214,0.210,0.213,0.121,0.077,north-northwest,6.0,No
2022/12/05,04:50,0.153,0.138,0.216,0.211,0.212,0.121,0.077,north-northwest,5.7,No
2022/12/05,05:00,0.154,0.138,0.215,0.210,0.212,0.121,0.077,north-northwest,4.6,No
2022/12/05,05:10,0.154,0.137,0.215,0.211,0.212,0.121,0.077,north,4.9,No
2022/12/05,05:20,0.153,0.138,0.215,0.212,0.213,0.121,0.077,north-northwest,4.2,No
2022/12/05,05:30,0.154,0.138,0.215,0.210,0.212,0.122,0.077,north,4.4,No
2022/12/05,05:40,0.152,0.137,0.215,0.212,0.212,0.121,0.077,north,6.0,No
2022/12/05,05:50,0.153,0.138,0.215,0.211,0.213,0.122,0.078,north-northwest,4.1,No
2022/12/05,06:00,0.154,0.138,0.215,0.211,0.212,0.121,0.077,north,3.8,No
2022/12/05,06:10,0.153,0.137,0.215,0.210,0.213,0.121,0.077,north-northwest,3.9,No
2022/12/05,06:20,0.153,0.138,0.215,0.212,0.213,0.121,0.077,north-northwest,4.7,No
2022/12/05,06:30,0.153,0.137,0.214,0.210,0.213,0.121,0.078,north-northwest,4.1,No
2022/12/05,06:40,0.153,0.138,0.215,0.212,0.212,0.121,0.077,north-northwest,3.4,No
2022/12/05,06:50,0.153,0.138,0.215,0.211,0.213,0.122,0.077,north-northwest,3.1,No
2022/12/05,07:00,0.153,0.138,0.215,0.211,0.213,0.121,0.077,north-northwest,3.7,No
2022/12/05,07:10,0.153,0.137,0.214,0.211,0.212,0.121,0.077,north-northwest,3.9,No
2022/12/05,07:20,0.152,0.137,0.215,0.211,0.212,0.121,0.077,north-northwest,3.8,No
2022/12/05,07:30,0.153,0.137,0.215,0.212,0.212,0.121,0.077,north-northwest,3.7,No
2022/12/05,07:40,0.153,0.138,0.214,0.211,0.210,0.122,0.077,north-northwest,3.4,No
2022/12/05,07:50,0.153,0.137,0.215,0.211,0.212,0.121,0.077,north-northwest,2.9,No
2022/12/05,08:00,0.153,0.137,0.215,0.212,0.213,0.121,0.077,north-northwest,2.4,No
2022/12/05,08:10,0.153,0.137,0.215,0.210,0.212,0.121,0.077,north-northwest,2.0,No
2022/12/05,08:20,0.154,0.138,0.215,0.211,0.213,0.121,0.077,north-northwest,2.4,No
2022/12/05,08:30,0.153,0.137,0.215,0.212,0.212,0.121,0.076,north-northwest,2.4,No
2022/12/05,08:40,0.152,0.138,0.215,0.212,0.212,0.121,0.076,north-northwest,2.4,No
2022/12/05,08:50,0.152,0.137,0.215,0.212,0.212,0.121,0.077,north-northwest,2.0,No
2022/12/05,09:00,0.153,0.138,0.215,0.211,0.214,0.122,0.077,north-northwest,2.9,No
2022/12/05,09:10,0.152,0.137,0.215,0.212,0.212,0.122,0.077,north-northwest,2.8,No
2022/12/05,09:20,0.153,0.137,0.215,0.211,0.213,0.122,0.078,north-northwest,3.3,No
2022/12/05,09:30,0.153,0.137,0.216,0.211,0.212,0.121,0.077,northwest,2.9,No
2022/12/05,09:40,0.153,0.137,0.215,0.212,0.213,0.122,0.077,north,3.9,No
2022/12/05,09:50,0.153,0.137,0.215,0.212,0.212,0.121,0.077,north-northwest,4.8,No
2022/12/05,10:00,0.154,0.137,0.215,0.211,0.213,0.121,0.077,north-northwest,3.4,No
2022/12/05,10:10,0.153,0.137,0.215,0.212,0.212,0.121,0.078,northwest,2.5,Yes
2022/12/05,10:20,0.152,0.138,0.216,0.212,0.212,0.122,0.077,northwest,2.9,Yes
2022/12/05,10:30,0.153,0.138,0.215,0.212,0.213,0.121,0.078,northwest,2.6,Yes
2022/12/05,10:40,0.155,0.139,0.215,0.212,0.213,0.122,0.078,northwest,2.2,Yes
2022/12/05,10:50,0.154,0.139,0.216,0.213,0.213,0.122,0.079,northwest,1.8,Yes
2022/12/05,11:00,0.155,0.138,0.216,0.213,0.214,0.123,0.080,northwest,2.3,Yes
2022/12/05,11:10,0.156,0.140,0.218,0.213,0.214,0.123,0.080,northwest,2.2,Yes
2022/12/05,11:20,0.156,0.139,0.218,0.214,0.214,0.124,0.081,northwest,1.8,Yes
2022/12/05,11:30,0.156,0.141,0.220,0.216,0.217,0.125,0.081,north-northwest,2.4,Yes
2022/12/05,11:40,0.157,0.141,0.219,0.216,0.216,0.125,0.081,northwest,2.0,Yes
2022/12/05,11:50,0.157,0.141,0.217,0.215,0.216,0.126,0.081,west-northwest,1.9,Yes
2022/12/05,12:00,0.157,0.141,0.219,0.216,0.215,0.125,0.081,northwest,2.5,Yes
2022/12/05,12:10,0.156,0.141,0.220,0.215,0.215,0.125,0.081,west-northwest,1.8,Yes
2022/12/05,12:20,0.157,0.142,0.220,0.216,0.216,0.124,0.081,northwest,1.6,Yes
2022/12/05,12:30,0.157,0.141,0.219,0.215,0.217,0.125,0.081,west-northwest,1.2,Yes
2022/12/05,12:40,0.157,0.141,0.218,0.215,0.215,0.124,0.081,west-northwest,1.1,Yes
2022/12/05,12:50,0.157,0.141,0.219,0.215,0.216,0.125,0.081,west-northwest,1.1,Yes
2022/12/05,13:00,0.157,0.142,0.220,0.216,0.217,0.127,0.082,west,0.7,Yes
2022/12/05,13:10,0.157,0.142,0.219,0.216,0.216,0.126,0.082,-,CALM,Yes
2022/12/05,13:20,0.157,0.141,0.219,0.216,0.216,0.126,0.082,west,1.1,Yes
2022/12/05,13:30,0.157,0.141,0.219,0.216,0.215,0.125,0.081,west-northwest,1.3,Yes
2022/12/05,13:40,0.156,0.140,0.219,0.214,0.215,0.126,0.081,west,1.0,Yes
2022/12/05,13:50,0.156,0.140,0.219,0.215,0.215,0.126,0.082,north-northwest,0.7,Yes
2022/12/05,14:00,0.157,0.141,0.218,0.215,0.215,0.126,0.081,northwest,1.2,Yes
2022/12/05,14:10,0.156,0.140,0.217,0.215,0.214,0.123,0.081,northwest,1.6,Yes
2022/12/05,14:20,0.156,0.140,0.218,0.212,0.215,0.125,0.080,northwest,1.7,Yes
2022/12/05,14:30,0.155,0.140,0.218,0.213,0.215,0.124,0.080,west-northwest,1.8,Yes
2022/12/05,14:40,0.156,0.139,0.217,0.214,0.214,0.125,0.081,northwest,1.4,Yes
2022/12/05,14:50,0.155,0.140,0.216,0.215,0.214,0.124,0.080,northwest,2.2,Yes
2022/12/05,15:00,0.155,0.139,0.217,0.213,0.214,0.124,0.079,northwest,2.3,Yes
2022/12/05,15:10,0.156,0.139,0.217,0.212,0.214,0.123,0.080,northwest,2.6,Yes
2022/12/05,15:20,0.155,0.139,0.217,0.212,0.214,0.124,0.080,northwest,3.2,Yes
2022/12/05,15:30,0.156,0.141,0.219,0.215,0.215,0.124,0.081,north-northwest,2.7,Yes
2022/12/05,15:40,0.156,0.142,0.218,0.213,0.215,0.126,0.081,north-northwest,3.5,Yes
2022/12/05,15:50,0.158,0.141,0.220,0.216,0.216,0.126,0.082,north-northwest,3.9,Yes
2022/12/05,16:00,0.158,0.142,0.219,0.215,0.216,0.126,0.083,north-northwest,4.4,Yes
2022/12/05,16:10,0.159,0.143,0.219,0.216,0.216,0.126,0.083,northwest,3.5,Yes
2022/12/05,16:20,0.160,0.143,0.221,0.216,0.218,0.128,0.084,west-southwest,7.0,Yes
2022/12/05,16:30,0.160,0.143,0.220,0.216,0.216,0.128,0.085,northwest,4.9,Yes
2022/12/05,16:40,0.159,0.143,0.220,0.217,0.217,0.129,0.085,northwest,4.7,Yes
2022/12/05,16:50,0.160,0.144,0.221,0.217,0.218,0.130,0.086,northwest,4.8,Yes
2022/12/05,17:00,0.161,0.145,0.221,0.217,0.218,0.130,0.086,northwest,5.2,Yes
2022/12/05,17:10,0.160,0.144,0.221,0.217,0.218,0.129,0.086,northwest,5.0,Yes
2022/12/05,17:20,0.160,0.142,0.220,0.216,0.218,0.129,0.085,northwest,6.1,Yes
2022/12/05,17:30,0.158,0.144,0.219,0.215,0.217,0.128,0.084,northwest,5.8,Yes
2022/12/05,17:40,0.158,0.143,0.220,0.215,0.217,0.127,0.084,northwest,5.6,Yes
2022/12/05,17:50,0.158,0.141,0.218,0.214,0.216,0.126,0.083,northwest,6.1,Yes
2022/12/05,18:00,0.157,0.141,0.217,0.214,0.215,0.125,0.082,northwest,6.4,Yes
2022/12/05,18:10,0.156,0.141,0.217,0.215,0.215,0.126,0.082,north-northwest,6.5,Yes
2022/12/05,18:20,0.157,0.141,0.218,0.213,0.213,0.125,0.081,northwest,6.9,Yes
2022/12/05,18:30,0.157,0.140,0.217,0.212,0.214,0.124,0.081,northwest,7.0,Yes
2022/12/05,18:40,0.157,0.141,0.217,0.212,0.216,0.125,0.082,northwest,7.4,Yes
2022/12/05,18:50,0.156,0.142,0.217,0.215,0.215,0.126,0.082,north-northwest,7.3,Yes
2022/12/05,19:00,0.156,0.142,0.217,0.213,0.216,0.125,0.082,northwest,7.0,Yes
2022/12/05,19:10,0.156,0.141,0.216,0.212,0.214,0.124,0.081,northwest,7.3,Yes
2022/12/05,19:20,0.157,0.140,0.216,0.213,0.216,0.124,0.081,northwest,7.8,Yes
2022/12/05,19:30,0.155,0.140,0.217,0.212,0.214,0.126,0.081,northwest,6.8,Yes
2022/12/05,19:40,0.155,0.140,0.216,0.212,0.213,0.125,0.081,north-northwest,6.8,Yes
2022/12/05,19:50,0.157,0.140,0.217,0.213,0.214,0.125,0.082,north-northwest,7.3,Yes
2022/12/05,20:00,0.157,0.142,0.217,0.214,0.216,0.126,0.082,north-northwest,7.9,Yes
2022/12/05,20:10,0.158,0.142,0.218,0.213,0.215,0.126,0.082,north-northwest,8.4,Yes
2022/12/05,20:20,0.156,0.142,0.217,0.214,0.215,0.126,0.082,northwest,7.6,Yes
2022/12/05,20:30,0.156,0.141,0.216,0.214,0.215,0.126,0.082,northwest,6.5,Yes
2022/12/05,20:40,0.158,0.142,0.219,0.214,0.216,0.126,0.082,northwest,7.3,Yes
2022/12/05,20:50,0.158,0.143,0.219,0.215,0.217,0.128,0.084,northwest,7.8,Yes
2022/12/05,21:00,0.160,0.143,0.218,0.215,0.216,0.128,0.083,northwest,7.6,Yes
2022/12/05,21:10,0.158,0.143,0.220,0.215,0.216,0.127,0.084,northwest,7.7,Yes
2022/12/05,21:20,0.158,0.142,0.218,0.214,0.215,0.127,0.084,northwest,8.4,Yes
2022/12/05,21:30,0.158,0.143,0.218,0.215,0.217,0.128,0.083,northwest,8.4,Yes
2022/12/05,21:40,0.159,0.143,0.218,0.215,0.218,0.128,0.084,northwest,8.2,Yes
2022/12/05,21:50,0.157,0.141,0.219,0.214,0.216,0.127,0.084,northwest,7.9,Yes
2022/12/05,22:00,0.159,0.143,0.219,0.214,0.215,0.126,0.082,northwest,7.5,Yes
2022/12/05,22:10,0.157,0.141,0.217,0.214,0.215,0.126,0.082,northwest,7.1,Yes
2022/12/05,22:20,0.156,0.141,0.215,0.212,0.214,0.125,0.081,northwest,7.3,Yes
2022/12/05,22:30,0.156,0.140,0.215,0.211,0.213,0.123,0.080,northwest,7.1,Yes
2022/12/05,22:40,0.154,0.140,0.213,0.209,0.212,0.123,0.079,northwest,7.4,Yes
2022/12/05,22:50,0.154,0.138,0.213,0.210,0.212,0.122,0.078,northwest,7.6,Yes
2022/12/05,23:00,0.154,0.138,0.213,0.210,0.212,0.122,0.078,northwest,8.2,Yes
2022/12/05,23:10,0.154,0.137,0.214,0.211,0.212,0.122,0.078,northwest,8.4,Yes
2022/12/05,23:20,0.154,0.138,0.213,0.210,0.213,0.122,0.079,northwest,7.9,Yes
2022/12/05,23:30,0.154,0.140,0.214,0.211,0.213,0.124,0.081,northwest,6.8,Yes
2022/12/05,23:40,0.157,0.141,0.216,0.213,0.216,0.125,0.081,northwest,7.1,Yes
2022/12/05,23:50,0.157,0.142,0.217,0.213,0.216,0.125,0.083,northwest,7.3,Yes
